軌道要素
Epoch 2012 June 2.0 TT = JDT 2456080.5
T 2012 May 13.52851 TT Kobayashi
q 1.6181660 (2000.0) P Q
n 0.15015036 Peri. 216.38255 -0.55897821 -0.82679127
a 3.5057839 Node 267.68395 +0.77484685 -0.49382354
e 0.5384296 Incl. 3.61067 +0.29522148 -0.26935943
P 6.56
From 350 observations 1978 Dec. 1-2012 May 28, mean residual 0".8.
Nongravitational parameters A1 = -0.03, A2 = +0.0005.
|